Terminal Aerodrome Forecast
Issued by NWS Wichita, KS

Home | Current Version | Previous Version | Text Only | Print | Product List | Glossary On
Versions: 1 2 3 4 5 6 7 8 9 10 11 12 13 14 15 16
000
FTUS43 KICT 012100 AAA
TAFICT
TAF AMD
KICT 012103Z 0121/0218 07007KT P6SM BKN050
     FM020500 03005KT P6SM VCTS BKN035CB
     FM020900 03006KT P6SM BKN020=

USA.gov is the U.S. government's official web portal to all federal, state and local government web resources and services.